Location: Newark
(47.3000°N, 8.0500°E)
Time: 19:33:54
(UTC+00:00)

OTV 5 (USA 277) - Visible Passes

Search period start: 25 August 2019 00:00
Search period end: 04 September 2019 00:00
Orbit: 305 x 329 km, 54.5° (Epoch: 20 August)

Date Brightness Start Highest point End Pass type
(mag) Time Alt. Az. Time Alt. Az. Time Alt. Az.
25 Aug ? 19:43:59 10° SW 19:46:39 70° SE 19:48:20 20° ENE visible
25 Aug ? 21:18:56 10° WNW 21:19:16 12° WNW 21:19:16 12° WNW visible
26 Aug ? 19:58:35 10° WSW 20:01:14 50° NNW 20:02:59 18° NE visible
27 Aug ? 20:13:31 10° W 20:15:55 28° NNW 20:17:20 18° NNE visible
28 Aug ? 18:53:20 10° WSW 18:56:03 76° NNW 18:58:44 10° NE visible
28 Aug ? 20:28:35 10° WNW 20:30:42 20° NNW 20:31:29 18° NNE visible
29 Aug ? 19:08:08 10° W 19:10:40 36° NNW 19:13:13 10° NE visible
29 Aug ? 20:43:36 10° NW 20:45:30 17° N 20:45:30 17° N visible
30 Aug ? 19:23:08 10° WNW 19:25:25 23° NNW 19:27:40 10° NE visible
30 Aug ? 20:58:26 10° NW 20:59:27 15° NNW 20:59:27 15° NNW visible
31 Aug ? 19:38:12 10° NW 19:40:13 18° N 19:42:13 10° NE visible
31 Aug ? 21:13:03 10° NW 21:13:20 12° NW 21:13:20 12° NW visible
01 Sep ? 19:53:09 10° NW 19:55:03 17° N 19:56:19 13° NE visible
02 Sep ? 20:07:52 10° NW 20:09:54 19° N 20:10:09 18° NNE visible
03 Sep ? 18:47:47 10° NW 18:49:44 17° N 18:51:41 10° NE visible
03 Sep ? 20:22:24 10° NW 20:23:59 22° N 20:23:59 22° N visible
